Location: Malvern Link
(52.1333°N, 2.3000°W)
Time: 02:52:27
(UTC+00:00)

DIWATA 2B (PO-101) - Pass Details

Date: 29 June 2022
Orbit: 583 x 599 km, 98.0° (Epoch: 13 August)

Event Time Altitude Azimuth Distance (km) Brightness Sun altitude
Exits shadow 01:22:58 - 146° (SSE) 2,095 ? -13.1°
Reaches altitude 10° 01:23:21 10° 145° (SE) 1,937 ? -13.1°
Maximum altitude 01:27:26 52° 70° (ENE) 753 ? -12.9°
Drops below altitude 10° 01:31:33 10° 354° (N) 1,953 ? -12.7°
Sets 01:33:46 0° 350° (N) 2,861 ? -12.6°
